TimeCST,TemperatureF,Dew PointF,Humidity,Sea Level PressureIn,VisibilityMPH,Wind Direction,Wind SpeedMPH,Gust SpeedMPH,PrecipitationIn,Events,Conditions,WindDirDegrees,DateUTC
12:53 AM,46.9,41.0,80,30.05,10.0,WNW,4.6,-,N/A,,Clear,300,2012-11-07 06:53:00
1:53 AM,46.9,41.0,80,30.06,10.0,NW,5.8,-,N/A,,Clear,310,2012-11-07 07:53:00
2:53 AM,46.0,41.0,83,30.06,10.0,WNW,6.9,-,N/A,,Clear,300,2012-11-07 08:53:00
3:53 AM,46.0,39.9,79,30.06,10.0,WNW,5.8,-,N/A,,Clear,300,2012-11-07 09:53:00
4:53 AM,45.0,39.9,82,30.07,10.0,NW,6.9,-,N/A,,Clear,310,2012-11-07 10:53:00
5:53 AM,46.0,39.0,76,30.07,10.0,NW,6.9,-,N/A,,Clear,320,2012-11-07 11:53:00
6:53 AM,44.1,37.9,79,30.09,10.0,WNW,5.8,-,N/A,,Clear,300,2012-11-07 12:53:00
7:53 AM,48.0,39.0,71,30.11,10.0,WNW,8.1,-,N/A,,Clear,300,2012-11-07 13:53:00
8:53 AM,54.0,39.9,59,30.12,10.0,NW,5.8,-,N/A,,Clear,310,2012-11-07 14:53:00
9:53 AM,59.0,36.0,42,30.12,10.0,NW,15.0,-,N/A,,Clear,310,2012-11-07 15:53:00
10:53 AM,60.1,37.0,42,30.11,10.0,NNW,11.5,19.6,N/A,,Clear,340,2012-11-07 16:53:00
11:53 AM,61.0,34.0,36,30.09,10.0,NNW,17.3,26.5,N/A,,Clear,340,2012-11-07 17:53:00
12:53 PM,62.1,34.0,35,30.07,10.0,North,15.0,20.7,N/A,,Clear,350,2012-11-07 18:53:00
1:53 PM,63.0,33.1,33,30.07,10.0,NNW,17.3,24.2,N/A,,Clear,330,2012-11-07 19:53:00
2:53 PM,62.1,34.0,35,30.08,10.0,North,12.7,23.0,N/A,,Clear,350,2012-11-07 20:53:00
3:53 PM,62.1,33.1,34,30.09,10.0,NW,10.4,-,N/A,,Clear,320,2012-11-07 21:53:00
4:53 PM,59.0,36.0,42,30.10,10.0,North,4.6,-,N/A,,Clear,360,2012-11-07 22:53:00
5:53 PM,52.0,37.9,59,30.12,10.0,ENE,5.8,-,N/A,,Clear,60,2012-11-07 23:53:00
6:53 PM,50.0,39.0,66,30.14,10.0,East,5.8,-,N/A,,Clear,80,2012-11-08 00:53:00
7:53 PM,46.9,39.0,74,30.16,10.0,Calm,Calm,-,N/A,,Clear,0,2012-11-08 01:53:00
8:53 PM,45.0,39.0,80,30.17,10.0,Calm,Calm,-,N/A,,Clear,0,2012-11-08 02:53:00
9:53 PM,43.0,39.0,86,30.18,10.0,Calm,Calm,-,N/A,,Clear,0,2012-11-08 03:53:00
10:53 PM,44.1,37.9,79,30.18,10.0,Calm,Calm,-,N/A,,Clear,0,2012-11-08 04:53:00
11:53 PM,41.0,37.9,89,30.19,10.0,Calm,Calm,-,N/A,,Clear,0,2012-11-08 05:53:00